| time (UTC) | temp C | wind direction | speed KPH | gust KPH | rain 1hr cm | rain 24hr cm | rain mn cm | humidity % | barometer mb |
| 20260903025506 | 24 | 189 | 0.0 | 0.0 | 0.00 | 0.00 | 0.00 | 87 | 1017.1 |
| 20260903025005 | 24 | 189 | 0.0 | 0.0 | 0.00 | 0.00 | 0.00 | 87 | 1017.1 |
| 20260903024517 | 24 | 189 | 0.0 | 0.0 | 0.00 | 0.00 | 0.00 | 86 | 1017.1 |
| 20260903024017 | 24 | 189 | 0.0 | 0.0 | 0.00 | 0.00 | 0.00 | 86 | 1017.2 |
| 20260903023511 | 24 | 189 | 0.0 | 0.0 | 0.00 | 0.00 | 0.00 | 86 | 1017.2 |
| 20260903023035 | 24 | 189 | 0.0 | 0.0 | 0.00 | 0.00 | 0.00 | 86 | 1017.2 |
| 20260903022503 | 24 | 189 | 0.0 | 0.0 | 0.00 | 0.00 | 0.00 | 85 | 1017.2 |
| 20260903022003 | 25 | 189 | 0.0 | 0.0 | 0.00 | 0.00 | 0.00 | 85 | 1017.2 |
| 20260903021506 | 25 | 189 | 0.0 | 0.0 | 0.00 | 0.00 | 0.00 | 85 | 1017.2 |
| 20260903021003 | 25 | 189 | 0.0 | 0.0 | 0.00 | 0.00 | 0.00 | 85 | 1017.2 |
| 20260903020503 | 25 | 189 | 0.0 | 0.0 | 0.00 | 0.00 | 0.00 | 84 | 1017.2 |
| 20260903020010 | 25 | 189 | 0.0 | 0.0 | 0.00 | 0.00 | 0.00 | 84 | 1017.2 |
| 20260903015504 | 25 | 189 | 0.0 | 0.0 | 0.00 | 0.00 | 0.00 | 83 | 1017.2 |
| 20260903015007 | 25 | 189 | 0.0 | 0.0 | 0.00 | 0.00 | 0.00 | 82 | 1017.2 |
| 20260903014520 | 25 | 189 | 0.0 | 0.0 | 0.00 | 0.00 | 0.00 | 82 | 1017.1 |
| 20260903014010 | 25 | 189 | 0.0 | 0.0 | 0.00 | 0.00 | 0.00 | 81 | 1017.1 |
| 20260903013507 | 26 | 189 | 0.0 | 0.0 | 0.00 | 0.00 | 0.00 | 81 | 1016.8 |
| 20260903013025 | 26 | 189 | 0.0 | 0.0 | 0.00 | 0.00 | 0.00 | 80 | 1017.0 |
| 20260903012509 | 26 | 189 | 0.0 | 0.0 | 0.00 | 0.00 | 0.00 | 79 | 1017.0 |
| 20260903012010 | 26 | 189 | 0.0 | 0.0 | 0.00 | 0.00 | 0.00 | 79 | 1017.0 |
| 20260903011504 | 26 | 189 | 0.0 | 0.0 | 0.00 | 0.00 | 0.00 | 78 | 1017.0 |
| 20260903011004 | 26 | 189 | 0.0 | 0.0 | 0.00 | 0.00 | 0.00 | 77 | 1016.9 |
| 20260903010503 | 27 | 189 | 0.0 | 0.0 | 0.00 | 0.00 | 0.00 | 76 | 1016.8 |
| 20260903010005 | 27 | 189 | 0.0 | 0.0 | 0.00 | 0.00 | 0.00 | 75 | 1016.8 |
| 20260903005504 | 27 | 189 | 0.0 | 0.0 | 0.00 | 0.00 | 0.00 | 75 | 1016.8 |
| 20260903005004 | 27 | 189 | 0.0 | 0.0 | 0.00 | 0.00 | 0.00 | 73 | 1016.8 |
| 20260903004522 | 28 | 189 | 0.0 | 0.0 | 0.00 | 0.00 | 0.00 | 73 | 1016.8 |
| 20260903004007 | 28 | 189 | 0.0 | 0.0 | 0.00 | 0.00 | 0.00 | 72 | 1016.8 |
| 20260903003507 | 28 | 189 | 0.0 | 0.0 | 0.00 | 0.00 | 0.00 | 71 | 1016.7 |
| 20260903003018 | 29 | 189 | 0.0 | 0.0 | 0.00 | 0.00 | 0.00 | 70 | 1016.6 |
| 20260903002509 | 29 | 189 | 0.0 | 0.0 | 0.00 | 0.00 | 0.00 | 69 | 1016.6 |
| 20260903002011 | 30 | 189 | 0.0 | 0.0 | 0.00 | 0.00 | 0.00 | 68 | 1016.6 |
| 20260903001528 | 30 | 250 | 0.0 | 0.0 | 0.00 | 0.00 | 0.00 | 66 | 1016.6 |
| 20260903001015 | 30 | 293 | 0.0 | 4.8 | 0.00 | 0.00 | 0.00 | 64 | 1016.6 |
| 20260903000503 | 30 | 198 | 0.0 | 4.8 | 0.00 | 0.00 | 0.00 | 63 | 1016.6 |
| 20260903000007 | 30 | 257 | 0.0 | 1.6 | 0.00 | 0.00 | 0.00 | 63 | 1016.6 |
| 20260902235504 | 30 | 227 | 0.0 | 1.6 | 0.00 | 0.00 | 0.00 | 63 | 1016.5 |
| 20260902235007 | 31 | 244 | 0.0 | 6.4 | 0.00 | 0.00 | 0.00 | 62 | 1016.5 |
| 20260902234511 | 31 | 267 | 1.6 | 9.7 | 0.00 | 0.00 | 0.00 | 61 | 1016.5 |
| 20260902234007 | 31 | 269 | 0.0 | 9.7 | 0.00 | 0.00 | 0.00 | 60 | 1016.5 |
| 20260902233504 | 31 | 255 | 1.6 | 8.0 | 0.00 | 0.00 | 0.00 | 59 | 1016.5 |
| 20260902233038 | 31 | 265 | 1.6 | 6.4 | 0.00 | 0.00 | 0.00 | 59 | 1016.5 |
| 20260902232510 | 31 | 238 | 1.6 | 9.7 | 0.00 | 0.00 | 0.00 | 59 | 1016.5 |
| 20260902232009 | 32 | 280 | 1.6 | 14.5 | 0.00 | 0.00 | 0.00 | 58 | 1016.5 |
| 20260902231542 | 32 | 241 | 4.8 | 14.5 | 0.00 | 0.00 | 0.00 | 57 | 1016.6 |
| 20260902231011 | 32 | 294 | 4.8 | 11.3 | 0.00 | 0.00 | 0.00 | 57 | 1016.7 |
| 20260902230514 | 32 | 241 | 1.6 | 11.3 | 0.00 | 0.00 | 0.00 | 57 | 1016.7 |
| 20260902230033 | 32 | 260 | 3.2 | 8.0 | 0.00 | 0.00 | 0.00 | 58 | 1016.6 |
| 20260902225503 | 32 | 214 | 1.6 | 4.8 | 0.00 | 0.00 | 0.00 | 57 | 1016.6 |
| 20260902225004 | 32 | 269 | 3.2 | 14.5 | 0.00 | 0.00 | 0.00 | 57 | 1016.7 |
| 20260902224511 | 32 | 271 | 4.8 | 14.5 | 0.00 | 0.00 | 0.00 | 55 | 1016.7 |
| 20260902224017 | 32 | 210 | 4.8 | 14.5 | 0.00 | 0.00 | 0.00 | 56 | 1016.7 |
| 20260902223505 | 32 | 281 | 6.4 | 12.9 | 0.00 | 0.00 | 0.00 | 55 | 1016.7 |
| 20260902223012 | 32 | 284 | 4.8 | 14.5 | 0.00 | 0.00 | 0.00 | 55 | 1016.7 |
| 20260902222508 | 33 | 240 | 4.8 | 14.5 | 0.00 | 0.00 | 0.00 | 54 | 1016.7 |
| 20260902222008 | 33 | 236 | 4.8 | 11.3 | 0.00 | 0.00 | 0.00 | 55 | 1016.7 |
| 20260902221535 | 33 | 246 | 3.2 | 14.5 | 0.00 | 0.00 | 0.00 | 54 | 1016.8 |
| 20260902221009 | 33 | 248 | 4.8 | 14.5 | 0.00 | 0.00 | 0.00 | 53 | 1016.8 |
| 20260902220514 | 33 | 252 | 6.4 | 14.5 | 0.00 | 0.00 | 0.00 | 54 | 1016.8 |
| 20260902220028 | 33 | 180 | 4.8 | 14.5 | 0.00 | 0.00 | 0.00 | 54 | 1016.8 |
| 20260902215516 | 33 | 360 | 6.4 | 16.1 | 0.00 | 0.00 | 0.00 | 55 | 1016.8 |
| 20260902215014 | 33 | 219 | 4.8 | 16.1 | 0.00 | 0.00 | 0.00 | 55 | 1016.8 |
| 20260902214515 | 33 | 217 | 6.4 | 12.9 | 0.00 | 0.00 | 0.00 | 55 | 1016.8 |
| 20260902214004 | 33 | 241 | 6.4 | 12.9 | 0.00 | 0.00 | 0.00 | 54 | 1016.9 |
| 20260902213503 | 33 | 227 | 1.6 | 11.3 | 0.00 | 0.00 | 0.00 | 56 | 1016.9 |
| 20260902213034 | 33 | 294 | 4.8 | 11.3 | 0.00 | 0.00 | 0.00 | 54 | 1016.9 |
| 20260902212505 | 33 | 234 | 3.2 | 9.7 | 0.00 | 0.00 | 0.00 | 56 | 1016.9 |
| 20260902212011 | 33 | 269 | 4.8 | 11.3 | 0.00 | 0.00 | 0.00 | 56 | 1017.0 |
| 20260902211518 | 33 | 198 | 3.2 | 11.3 | 0.00 | 0.00 | 0.00 | 55 | 1017.0 |
| 20260902211009 | 33 | 235 | 6.4 | 14.5 | 0.00 | 0.00 | 0.00 | 55 | 1017.0 |
| 20260902210511 | 33 | 234 | 4.8 | 16.1 | 0.00 | 0.00 | 0.00 | 56 | 1017.1 |
| 20260902210023 | 33 | 236 | 8.0 | 14.5 | 0.00 | 0.00 | 0.00 | 54 | 1017.1 |
| 20260902205513 | 33 | 225 | 6.4 | 14.5 | 0.00 | 0.00 | 0.00 | 55 | 1017.1 |
| 20260902205013 | 33 | 264 | 4.8 | 12.9 | 0.00 | 0.00 | 0.00 | 54 | 1017.1 |
| 20260902204530 | 33 | 262 | 4.8 | 12.9 | 0.00 | 0.00 | 0.00 | 53 | 1017.1 |
| 20260902204021 | 33 | 262 | 4.8 | 16.1 | 0.00 | 0.00 | 0.00 | 54 | 1017.2 |
| 20260902203504 | 33 | 259 | 8.0 | 16.1 | 0.00 | 0.00 | 0.00 | 53 | 1017.2 |
| 20260902203008 | 33 | 244 | 4.8 | 14.5 | 0.00 | 0.00 | 0.00 | 56 | 1017.2 |
| 20260902202504 | 33 | 232 | 4.8 | 14.5 | 0.00 | 0.00 | 0.00 | 53 | 1017.3 |
| 20260902202005 | 33 | 253 | 3.2 | 16.1 | 0.00 | 0.00 | 0.00 | 53 | 1017.3 |
| 20260902201515 | 34 | 276 | 3.2 | 16.1 | 0.00 | 0.00 | 0.00 | 51 | 1017.4 |
| 20260902201007 | 34 | 255 | 4.8 | 17.7 | 0.00 | 0.00 | 0.00 | 53 | 1017.4 |
| 20260902200510 | 34 | 300 | 8.0 | 17.7 | 0.00 | 0.00 | 0.00 | 51 | 1017.5 |
| 20260902200021 | 34 | 247 | 3.2 | 12.9 | 0.00 | 0.00 | 0.00 | 52 | 1017.5 |
| 20260902195510 | 34 | 209 | 1.6 | 11.3 | 0.00 | 0.00 | 0.00 | 51 | 1017.5 |
| 20260902195014 | 34 | 236 | 4.8 | 12.9 | 0.00 | 0.00 | 0.00 | 50 | 1017.6 |
| 20260902194540 | 34 | 263 | 3.2 | 11.3 | 0.00 | 0.00 | 0.00 | 53 | 1017.6 |
| 20260902194015 | 34 | 227 | 4.8 | 9.7 | 0.00 | 0.00 | 0.00 | 54 | 1017.6 |
| 20260902193513 | 34 | 170 | 1.6 | 14.5 | 0.00 | 0.00 | 0.00 | 53 | 1017.6 |
| 20260902193032 | 34 | 254 | 3.2 | 17.7 | 0.00 | 0.00 | 0.00 | 53 | 1017.7 |
| 20260902192503 | 34 | 273 | 8.0 | 17.7 | 0.00 | 0.00 | 0.00 | 50 | 1017.7 |
| 20260902192006 | 34 | 254 | 6.4 | 17.7 | 0.00 | 0.00 | 0.00 | 49 | 1017.8 |
| 20260902191513 | 34 | 346 | 3.2 | 14.5 | 0.00 | 0.00 | 0.00 | 52 | 1017.8 |
| 20260902191007 | 34 | 277 | 8.0 | 14.5 | 0.00 | 0.00 | 0.00 | 55 | 1017.9 |
| 20260902190507 | 34 | 248 | 6.4 | 16.1 | 0.00 | 0.00 | 0.00 | 51 | 1018.0 |
| 20260902190020 | 34 | 277 | 3.2 | 16.1 | 0.00 | 0.00 | 0.00 | 55 | 1018.0 |
| 20260902185511 | 34 | 305 | 3.2 | 17.7 | 0.00 | 0.00 | 0.00 | 55 | 1018.1 |
| 20260902185011 | 33 | 256 | 6.4 | 17.7 | 0.00 | 0.00 | 0.00 | 52 | 1018.2 |
| 20260902184524 | 33 | 283 | 6.4 | 17.7 | 0.00 | 0.00 | 0.00 | 54 | 1018.2 |
| 20260902184011 | 33 | 283 | 4.8 | 17.7 | 0.00 | 0.00 | 0.00 | 52 | 1018.2 |
| 20260902183513 | 34 | 256 | 6.4 | 17.7 | 0.00 | 0.00 | 0.00 | 53 | 1018.3 |
| 20260902183028 | 33 | 244 | 6.4 | 14.5 | 0.00 | 0.00 | 0.00 | 53 | 1018.4 |
| 20260902182516 | 33 | 253 | 4.8 | 14.5 | 0.00 | 0.00 | 0.00 | 53 | 1018.3 |
| 20260902182016 | 33 | 212 | 4.8 | 14.5 | 0.00 | 0.00 | 0.00 | 55 | 1018.3 |
| 20260902181507 | 33 | 302 | 3.2 | 14.5 | 0.00 | 0.00 | 0.00 | 54 | 1018.3 |
| 20260902181006 | 33 | 288 | 8.0 | 14.5 | 0.00 | 0.00 | 0.00 | 53 | 1018.3 |
| 20260902180504 | 33 | 168 | 3.2 | 14.5 | 0.00 | 0.00 | 0.00 | 57 | 1018.3 |
| 20260902180017 | 33 | 238 | 4.8 | 14.5 | 0.00 | 0.00 | 0.00 | 55 | 1018.4 |
| 20260902175510 | 33 | 225 | 4.8 | 14.5 | 0.00 | 0.00 | 0.00 | 57 | 1018.4 |
| 20260902175012 | 33 | 267 | 4.8 | 14.5 | 0.00 | 0.00 | 0.00 | 55 | 1018.5 |
| 20260902174525 | 33 | 200 | 6.4 | 14.5 | 0.00 | 0.00 | 0.00 | 55 | 1018.5 |
| 20260902174010 | 33 | 280 | 4.8 | 14.5 | 0.00 | 0.00 | 0.00 | 58 | 1018.6 |
| 20260902173512 | 33 | 333 | 6.4 | 17.7 | 0.00 | 0.00 | 0.00 | 57 | 1018.8 |
| 20260902173030 | 33 | 265 | 4.8 | 17.7 | 0.00 | 0.00 | 0.00 | 56 | 1018.9 |
| 20260902172515 | 33 | 303 | 4.8 | 12.9 | 0.00 | 0.00 | 0.00 | 57 | 1018.9 |
| 20260902172015 | 33 | 242 | 3.2 | 11.3 | 0.00 | 0.00 | 0.00 | 60 | 1019.1 |
| 20260902171529 | 33 | 227 | 1.6 | 9.7 | 0.00 | 0.00 | 0.00 | 60 | 1019.1 |
| 20260902171017 | 33 | 247 | 3.2 | 12.9 | 0.00 | 0.00 | 0.00 | 60 | 1019.1 |
| 20260902170521 | 33 | 268 | 4.8 | 12.9 | 0.00 | 0.00 | 0.00 | 56 | 1019.1 |
| 20260902170014 | 33 | 269 | 4.8 | 9.7 | 0.00 | 0.00 | 0.00 | 58 | 1019.1 |
| 20260902165507 | 33 | 215 | 3.2 | 11.3 | 0.00 | 0.00 | 0.00 | 58 | 1019.1 |
| 20260902165011 | 33 | 235 | 4.8 | 11.3 | 0.00 | 0.00 | 0.00 | 58 | 1019.2 |
| 20260902164529 | 32 | 251 | 3.2 | 9.7 | 0.00 | 0.00 | 0.00 | 59 | 1019.1 |
| 20260902164010 | 32 | 203 | 3.2 | 11.3 | 0.00 | 0.00 | 0.00 | 60 | 1019.2 |
| 20260902163514 | 32 | 243 | 4.8 | 11.3 | 0.00 | 0.00 | 0.00 | 59 | 1019.2 |
| 20260902163034 | 32 | 284 | 4.8 | 11.3 | 0.00 | 0.00 | 0.00 | 61 | 1019.1 |
| 20260902162521 | 32 | 227 | 4.8 | 12.9 | 0.00 | 0.00 | 0.00 | 59 | 1019.1 |
| 20260902162021 | 32 | 245 | 3.2 | 12.9 | 0.00 | 0.00 | 0.00 | 60 | 1019.0 |
| 20260902161535 | 32 | 190 | 3.2 | 9.7 | 0.00 | 0.00 | 0.00 | 61 | 1019.1 |
| 20260902161017 | 32 | 239 | 4.8 | 8.0 | 0.00 | 0.00 | 0.00 | 61 | 1019.2 |
| 20260902160520 | 32 | 263 | 1.6 | 9.7 | 0.00 | 0.00 | 0.00 | 60 | 1019.1 |
| 20260902160031 | 31 | 270 | 3.2 | 9.7 | 0.00 | 0.00 | 0.00 | 64 | 1019.1 |
| 20260902155521 | 31 | 226 | 3.2 | 11.3 | 0.00 | 0.00 | 0.00 | 62 | 1019.2 |
| 20260902155009 | 31 | 228 | 6.4 | 11.3 | 0.00 | 0.00 | 0.00 | 62 | 1019.3 |
| 20260902154520 | 31 | 243 | 4.8 | 9.7 | 0.00 | 0.00 | 0.00 | 63 | 1019.3 |
| 20260902154008 | 31 | 217 | 3.2 | 11.3 | 0.00 | 0.00 | 0.00 | 65 | 1019.2 |
| 20260902153511 | 31 | 267 | 3.2 | 11.3 | 0.00 | 0.00 | 0.00 | 63 | 1019.2 |
| 20260902153027 | 31 | 286 | 4.8 | 11.3 | 0.00 | 0.00 | 0.00 | 64 | 1019.2 |
| 20260902152511 | 31 | 273 | 4.8 | 12.9 | 0.00 | 0.00 | 0.00 | 64 | 1019.2 |
| 20260902152014 | 30 | 268 | 3.2 | 12.9 | 0.00 | 0.00 | 0.00 | 66 | 1019.2 |
| 20260902151529 | 30 | 269 | 4.8 | 12.9 | 0.00 | 0.00 | 0.00 | 65 | 1019.2 |
| 20260902151016 | 30 | 231 | 3.2 | 12.9 | 0.00 | 0.00 | 0.00 | 65 | 1019.2 |
| 20260902150514 | 30 | 268 | 4.8 | 12.9 | 0.00 | 0.00 | 0.00 | 65 | 1019.3 |
| 20260902150033 | 30 | 234 | 1.6 | 9.7 | 0.00 | 0.00 | 0.00 | 67 | 1019.4 |
| 20260902145521 | 30 | 226 | 3.2 | 9.7 | 0.00 | 0.00 | 0.00 | 67 | 1019.4 |
| 20260902145017 | 30 | 236 | 4.8 | 9.7 | 0.00 | 0.00 | 0.00 | 68 | 1019.4 |
| 20260902144533 | 30 | 262 | 4.8 | 9.7 | 0.00 | 0.00 | 0.00 | 69 | 1019.4 |
| 20260902144007 | 29 | 254 | 3.2 | 11.3 | 0.00 | 0.00 | 0.00 | 69 | 1019.4 |
| 20260902143512 | 29 | 296 | 3.2 | 11.3 | 0.00 | 0.00 | 0.00 | 69 | 1019.3 |
| 20260902143017 | 28 | 229 | 4.8 | 9.7 | 0.00 | 0.00 | 0.00 | 69 | 1019.3 |
| 20260902142509 | 28 | 246 | 4.8 | 8.0 | 0.00 | 0.00 | 0.00 | 69 | 1019.3 |
| 20260902142012 | 28 | 246 | 3.2 | 11.3 | 0.00 | 0.00 | 0.00 | 70 | 1019.4 |
| 20260902141532 | 28 | 226 | 6.4 | 11.3 | 0.00 | 0.00 | 0.00 | 71 | 1019.4 |
| 20260902141012 | 28 | 252 | 4.8 | 11.3 | 0.00 | 0.00 | 0.00 | 71 | 1019.4 |
| 20260902140515 | 28 | 232 | 4.8 | 9.7 | 0.00 | 0.00 | 0.00 | 72 | 1019.3 |
| 20260902140031 | 28 | 232 | 3.2 | 9.7 | 0.00 | 0.00 | 0.00 | 75 | 1019.3 |
| 20260902135515 | 27 | 204 | 1.6 | 6.4 | 0.00 | 0.00 | 0.00 | 76 | 1019.2 |
| 20260902135020 | 27 | 266 | 3.2 | 6.4 | 0.00 | 0.00 | 0.00 | 77 | 1019.2 |
| 20260902134534 | 27 | 242 | 3.2 | 6.4 | 0.00 | 0.00 | 0.00 | 78 | 1019.2 |
| 20260902134019 | 27 | 196 | 3.2 | 4.8 | 0.00 | 0.00 | 0.00 | 79 | 1019.2 |
| 20260902133524 | 27 | 232 | 3.2 | 4.8 | 0.00 | 0.00 | 0.00 | 79 | 1019.2 |
| 20260902133050 | 26 | 256 | 1.6 | 4.8 | 0.00 | 0.00 | 0.00 | 80 | 1019.3 |
| 20260902132517 | 26 | 242 | 3.2 | 4.8 | 0.00 | 0.00 | 0.00 | 80 | 1019.3 |
| 20260902132008 | 26 | 259 | 1.6 | 3.2 | 0.00 | 0.00 | 0.00 | 80 | 1019.3 |
| 20260902131526 | 26 | 215 | 0.0 | 4.8 | 0.00 | 0.00 | 0.00 | 81 | 1019.3 |
| 20260902131019 | 26 | 224 | 1.6 | 4.8 | 0.00 | 0.00 | 0.00 | 81 | 1019.2 |
| 20260902130514 | 25 | 162 | 1.6 | 3.2 | 0.00 | 0.00 | 0.00 | 82 | 1019.2 |
| 20260902130030 | 25 | 209 | 0.0 | 3.2 | 0.00 | 0.00 | 0.00 | 82 | 1019.2 |
| 20260902125515 | 25 | 170 | 1.6 | 6.4 | 0.00 | 0.00 | 0.00 | 83 | 1019.2 |
| 20260902125015 | 25 | 180 | 1.6 | 4.8 | 0.00 | 0.00 | 0.00 | 83 | 1019.2 |
| 20260902124530 | 25 | 259 | 0.0 | 4.8 | 0.00 | 0.00 | 0.00 | 84 | 1019.2 |
| 20260902124017 | 24 | 208 | 0.0 | 3.2 | 0.00 | 0.00 | 0.00 | 85 | 1019.1 |
| 20260902123518 | 24 | 191 | 0.0 | 3.2 | 0.00 | 0.00 | 0.00 | 85 | 1019.1 |
| 20260902123037 | 24 | 246 | 0.0 | 4.8 | 0.00 | 0.00 | 0.00 | 86 | 1019.1 |
| 20260902122516 | 23 | 277 | 0.0 | 8.0 | 0.00 | 0.00 | 0.00 | 86 | 1019.0 |
| 20260902122009 | 23 | 182 | 3.2 | 9.7 | 0.00 | 0.00 | 0.00 | 86 | 1018.9 |
| 20260902121522 | 23 | 140 | 1.6 | 9.7 | 0.00 | 0.00 | 0.00 | 87 | 1019.1 |
| 20260902121019 | 23 | 182 | 3.2 | 8.0 | 0.00 | 0.00 | 0.00 | 87 | 1019.0 |
| 20260902120511 | 23 | 175 | 3.2 | 6.4 | 0.00 | 0.00 | 0.00 | 88 | 1018.9 |
| 20260902120023 | 23 | 144 | 1.6 | 6.4 | 0.00 | 0.00 | 0.00 | 88 | 1018.9 |
| 20260902115515 | 22 | 180 | 1.6 | 6.4 | 0.00 | 0.00 | 0.00 | 88 | 1018.9 |
| 20260902115013 | 22 | 174 | 1.6 | 4.8 | 0.00 | 0.00 | 0.00 | 88 | 1018.9 |
| 20260902114539 | 22 | 167 | 0.0 | 6.4 | 0.00 | 0.00 | 0.00 | 89 | 1018.7 |
| 20260902114016 | 22 | 161 | 1.6 | 6.4 | 0.00 | 0.00 | 0.00 | 89 | 1018.7 |
| 20260902113516 | 22 | 173 | 0.0 | 8.0 | 0.00 | 0.00 | 0.00 | 89 | 1018.6 |
| 20260902113042 | 22 | 193 | 3.2 | 6.4 | 0.00 | 0.00 | 0.00 | 89 | 1018.6 |
| 20260902112516 | 22 | 160 | 1.6 | 4.8 | 0.00 | 0.00 | 0.00 | 89 | 1018.6 |
| 20260902112016 | 22 | 169 | 1.6 | 4.8 | 0.00 | 0.00 | 0.00 | 89 | 1018.6 |
| 20260902111534 | 22 | 173 | 3.2 | 4.8 | 0.00 | 0.00 | 0.00 | 89 | 1018.5 |
| 20260902111012 | 22 | 161 | 3.2 | 6.4 | 0.00 | 0.00 | 0.00 | 89 | 1018.5 |
| 20260902110512 | 22 | 160 | 1.6 | 6.4 | 0.00 | 0.00 | 0.00 | 90 | 1018.4 |
| 20260902110024 | 22 | 161 | 1.6 | 4.8 | 0.00 | 0.00 | 0.00 | 90 | 1018.4 |
| 20260902105511 | 22 | 157 | 0.0 | 4.8 | 0.00 | 0.00 | 0.00 | 90 | 1018.4 |
| 20260902105016 | 22 | 162 | 1.6 | 3.2 | 0.00 | 0.00 | 0.00 | 90 | 1018.4 |
| 20260902104530 | 22 | 186 | 1.6 | 6.4 | 0.00 | 0.00 | 0.00 | 91 | 1018.4 |
| 20260902104017 | 22 | 161 | 1.6 | 6.4 | 0.00 | 0.00 | 0.00 | 91 | 1018.4 |
| 20260902103519 | 22 | 163 | 3.2 | 6.4 | 0.00 | 0.00 | 0.00 | 92 | 1018.3 |
| 20260902103036 | 22 | 163 | 3.2 | 6.4 | 0.00 | 0.00 | 0.00 | 92 | 1018.3 |
| 20260902102518 | 22 | 160 | 3.2 | 6.4 | 0.00 | 0.00 | 0.00 | 92 | 1018.3 |
| 20260902102018 | 21 | 163 | 1.6 | 6.4 | 0.00 | 0.00 | 0.00 | 92 | 1018.3 |
| 20260902101521 | 21 | 158 | 1.6 | 4.8 | 0.00 | 0.00 | 0.00 | 92 | 1018.4 |
| 20260902101013 | 21 | 171 | 1.6 | 6.4 | 0.00 | 0.00 | 0.00 | 93 | 1018.4 |
| 20260902100509 | 21 | 150 | 1.6 | 6.4 | 0.00 | 0.00 | 0.00 | 93 | 1018.4 |
| 20260902100020 | 21 | 163 | 1.6 | 4.8 | 0.00 | 0.00 | 0.00 | 1018.4 | |
| 20260902095508 | 21 | 169 | 1.6 | 3.2 | 0.00 | 0.00 | 0.00 | 93 | 1018.5 |
| 20260902095011 | 21 | 163 | 1.6 | 3.2 | 0.00 | 0.00 | 0.00 | 93 | 1018.5 |
| 20260902094520 | 21 | 188 | 0.0 | 0.0 | 0.00 | 0.00 | 0.00 | 92 | 1018.5 |
| 20260902094009 | 21 | 188 | 0.0 | 0.0 | 0.00 | 0.00 | 0.00 | 92 | 1018.4 |
| 20260902093510 | 21 | 188 | 0.0 | 0.0 | 0.00 | 0.00 | 0.00 | 92 | 1018.4 |
| 20260902093024 | 21 | 188 | 0.0 | 0.0 | 0.00 | 0.00 | 0.00 | 92 | 1018.4 |
| 20260902092511 | 21 | 188 | 0.0 | 0.0 | 0.00 | 0.00 | 0.00 | 92 | 1018.3 |
| 20260902092011 | 21 | 188 | 0.0 | 0.0 | 0.00 | 0.00 | 0.00 | 92 | 1018.2 |
| 20260902091513 | 21 | 188 | 0.0 | 0.0 | 0.00 | 0.00 | 0.00 | 92 | 1018.2 |
| 20260902091008 | 21 | 188 | 0.0 | 0.0 | 0.00 | 0.00 | 0.00 | 92 | 1018.2 |
| 20260902090509 | 21 | 188 | 0.0 | 0.0 | 0.00 | 0.00 | 0.00 | 92 | 1018.2 |
| 20260902090017 | 21 | 188 | 0.0 | 0.0 | 0.00 | 0.00 | 0.00 | 92 | 1018.1 |
| 20260902085511 | 21 | 188 | 0.0 | 0.0 | 0.00 | 0.00 | 0.00 | 92 | 1018.1 |
| 20260902085011 | 21 | 188 | 0.0 | 0.0 | 0.00 | 0.00 | 0.00 | 92 | 1018.1 |
| 20260902084523 | 21 | 188 | 0.0 | 0.0 | 0.00 | 0.00 | 0.00 | 92 | 1018.0 |
| 20260902084012 | 21 | 188 | 0.0 | 0.0 | 0.00 | 0.00 | 0.00 | 92 | 1018.0 |
| 20260902083510 | 21 | 188 | 0.0 | 0.0 | 0.00 | 0.00 | 0.00 | 92 | 1018.0 |
| 20260902083020 | 21 | 188 | 0.0 | 0.0 | 0.00 | 0.00 | 0.00 | 91 | 1018.0 |
| 20260902082510 | 21 | 188 | 0.0 | 0.0 | 0.00 | 0.00 | 0.00 | 91 | 1017.9 |
| 20260902082012 | 21 | 188 | 0.0 | 0.0 | 0.00 | 0.00 | 0.00 | 91 | 1017.9 |
| 20260902081525 | 21 | 188 | 0.0 | 0.0 | 0.00 | 0.00 | 0.00 | 91 | 1017.8 |
| 20260902081012 | 21 | 188 | 0.0 | 0.0 | 0.00 | 0.00 | 0.00 | 91 | 1017.8 |
| 20260902080508 | 21 | 188 | 0.0 | 0.0 | 0.00 | 0.00 | 0.00 | 91 | 1017.8 |
| 20260902080018 | 21 | 188 | 0.0 | 0.0 | 0.00 | 0.00 | 0.00 | 91 | 1017.7 |
| 20260902075507 | 21 | 188 | 0.0 | 0.0 | 0.00 | 0.00 | 0.00 | 91 | 1017.7 |
| 20260902075011 | 21 | 188 | 0.0 | 0.0 | 0.00 | 0.00 | 0.00 | 91 | 1017.6 |
| 20260902074524 | 21 | 188 | 0.0 | 0.0 | 0.00 | 0.00 | 0.00 | 91 | 1017.6 |
| 20260902074010 | 22 | 188 | 0.0 | 0.0 | 0.00 | 0.00 | 0.00 | 91 | 1017.6 |
| 20260902073508 | 22 | 188 | 0.0 | 0.0 | 0.00 | 0.00 | 0.00 | 90 | 1017.7 |
| 20260902073023 | 22 | 188 | 0.0 | 0.0 | 0.00 | 0.00 | 0.00 | 90 | 1017.6 |
| 20260902072512 | 22 | 188 | 0.0 | 0.0 | 0.00 | 0.00 | 0.00 | 90 | 1017.7 |
| 20260902072011 | 22 | 188 | 0.0 | 0.0 | 0.00 | 0.00 | 0.00 | 90 | 1017.6 |
| 20260902071507 | 22 | 188 | 0.0 | 0.0 | 0.00 | 0.00 | 0.00 | 90 | 1017.7 |
| 20260902071006 | 22 | 188 | 0.0 | 0.0 | 0.00 | 0.00 | 0.00 | 90 | 1017.6 |
| 20260902070505 | 22 | 188 | 0.0 | 0.0 | 0.00 | 0.00 | 0.00 | 90 | 1017.6 |
| 20260902070013 | 22 | 188 | 0.0 | 0.0 | 0.00 | 0.00 | 0.00 | 90 | 1017.7 |
| 20260902065510 | 22 | 188 | 0.0 | 0.0 | 0.00 | 0.00 | 0.00 | 90 | 1017.7 |
| 20260902065012 | 22 | 188 | 0.0 | 0.0 | 0.00 | 0.00 | 0.00 | 90 | 1017.6 |
| 20260902064522 | 22 | 188 | 0.0 | 0.0 | 0.00 | 0.00 | 0.00 | 90 | 1017.6 |
| 20260902064002 | 22 | 188 | 0.0 | 0.0 | 0.00 | 0.00 | 0.00 | 90 | 1017.7 |
| 20260902063502 | 22 | 188 | 0.0 | 0.0 | 0.00 | 0.00 | 0.00 | 90 | 1017.7 |
| 20260902063003 | 22 | 188 | 0.0 | 0.0 | 0.00 | 0.00 | 0.00 | 90 | 1017.7 |
| 20260902062503 | 22 | 188 | 0.0 | 0.0 | 0.00 | 0.00 | 0.00 | 89 | 1017.7 |
| 20260902062003 | 22 | 188 | 0.0 | 0.0 | 0.00 | 0.00 | 0.00 | 89 | 1017.8 |
| 20260902061505 | 22 | 188 | 0.0 | 0.0 | 0.00 | 0.00 | 0.00 | 89 | 1017.9 |
| 20260902061007 | 22 | 188 | 0.0 | 0.0 | 0.00 | 0.00 | 0.00 | 89 | 1017.9 |
| 20260902060504 | 22 | 188 | 0.0 | 0.0 | 0.00 | 0.00 | 0.00 | 89 | 1017.8 |
| 20260902060012 | 22 | 188 | 0.0 | 0.0 | 0.00 | 0.00 | 0.00 | 89 | 1017.8 |
| 20260902055511 | 22 | 188 | 0.0 | 0.0 | 0.00 | 0.00 | 0.00 | 89 | 1017.9 |
| 20260902055008 | 22 | 188 | 0.0 | 0.0 | 0.00 | 0.00 | 0.00 | 89 | 1017.9 |
| 20260902054522 | 22 | 188 | 0.0 | 0.0 | 0.00 | 0.00 | 0.00 | 89 | 1017.9 |
| 20260902054010 | 22 | 188 | 0.0 | 0.0 | 0.00 | 0.00 | 0.00 | 89 | 1017.9 |
| 20260902053513 | 22 | 188 | 0.0 | 0.0 | 0.00 | 0.00 | 0.00 | 89 | 1017.9 |
| 20260902053025 | 22 | 173 | 0.0 | 0.0 | 0.00 | 0.00 | 0.00 | 89 | 1017.9 |
| 20260902052505 | 22 | 173 | 0.0 | 0.0 | 0.00 | 0.00 | 0.00 | 89 | 1017.9 |
| 20260902052002 | 22 | 173 | 0.0 | 0.0 | 0.00 | 0.00 | 0.00 | 89 | 1017.9 |
| 20260902051505 | 22 | 173 | 0.0 | 0.0 | 0.00 | 0.00 | 0.00 | 89 | 1017.8 |
| 20260902051010 | 22 | 173 | 0.0 | 0.0 | 0.00 | 0.00 | 0.00 | 89 | 1017.8 |
| 20260902050504 | 22 | 173 | 0.0 | 0.0 | 0.00 | 0.00 | 0.00 | 89 | 1017.8 |
| 20260902050009 | 22 | 173 | 0.0 | 0.0 | 0.00 | 0.00 | 0.00 | 89 | 1017.9 |
| 20260902045504 | 22 | 173 | 0.0 | 0.0 | 0.00 | 0.00 | 0.00 | 88 | 1017.9 |
| 20260902045007 | 22 | 173 | 0.0 | 0.0 | 0.00 | 0.00 | 0.00 | 88 | 1017.9 |
| 20260902044524 | 22 | 173 | 0.0 | 0.0 | 0.00 | 0.00 | 0.00 | 88 | 1017.9 |
| 20260902044011 | 23 | 173 | 0.0 | 0.0 | 0.00 | 0.00 | 0.00 | 88 | 1017.9 |
| 20260902043507 | 23 | 173 | 0.0 | 0.0 | 0.00 | 0.00 | 0.00 | 88 | 1017.9 |
| 20260902043023 | 23 | 173 | 0.0 | 0.0 | 0.00 | 0.00 | 0.00 | 88 | 1017.9 |
| 20260902042511 | 23 | 173 | 0.0 | 0.0 | 0.00 | 0.00 | 0.00 | 88 | 1018.0 |
| 20260902042016 | 23 | 173 | 0.0 | 0.0 | 0.00 | 0.00 | 0.00 | 88 | 1018.0 |
| 20260902041852 | 23 | 173 | 0.0 | 0.0 | 0.00 | 0.00 | 0.00 | 88 | 1018.0 |
| 20260902041846 | 23 | 173 | 0.0 | 0.0 | 0.00 | 0.00 | 0.00 | 88 | 1018.0 |
| 20260902041843 | 23 | 173 | 0.0 | 0.0 | 0.00 | 0.00 | 0.00 | 88 | 1018.0 |
| 20260902041841 | 23 | 173 | 0.0 | 0.0 | 0.00 | 0.00 | 0.00 | 87 | 1017.9 |
| 20260902032021 | 23 | 173 | 0.0 | 0.0 | 0.00 | 0.00 | 0.00 | 87 | 1017.9 |
| 20260902031535 | 23 | 173 | 0.0 | 0.0 | 0.00 | 0.00 | 0.00 | 87 | 1017.9 |
| 20260902031015 | 23 | 173 | 0.0 | 0.0 | 0.00 | 0.00 | 0.00 | 87 | 1017.9 |
| 20260902030516 | 23 | 173 | 0.0 | 0.0 | 0.00 | 0.00 | 0.00 | 87 | 1017.9 |
| 20260902030006 | 23 | 173 | 0.0 | 1.6 | 0.00 | 0.00 | 0.00 | 87 | 1017.9 |